Вернуться в каталог

DELTA 1 DEB

АктивенSSO
NORAD 21475·DEBRIS·🇺🇸 United States

Запущен Jun 12, 1975 с Vandenberg Space Force Base

Loading…

Ближайшие Пролёты (ближайшие 24 часа)

TLE

СвежийSource: Space-Track

Эпоха: Sep 13, 2026, 22:59 UTC

1 21475U 75052FK  26256.95810208  .00000006  00000-0  70613-4 0  9999
2 21475  99.6179  62.8323 0091448   7.9113 145.6106 13.54161838743516

Отслеживайте DELTA 1 DEB в реальном времени с AllMySat

Download on the App Store